map of BKK home
BKK - Airport
Location
City:  Bangkok, Samut Prakan, Thailand
Name:Suvarnabhumi Bangkok International Airport
ICAO:VTBS
IATA:BKK

Details
Type:Airport (Aerodrome, Airfield)
Use:Public/Civil, International (customs port of entry)
Latitude:1340'52"N (13.681108)
Longitude:10044'50"E (100.747283)
Datum:WGS 1984
Elevation:5 ft (2 m)
Variation:0.57W (WMM2015 magnetic declination)
0.01 annual change
Runways:2
Longest:13123 × 197 ft (4000 × 60 m), paved

Time
Time Zone:UTC+7
Local Time:

Weather
METAR:VTBS 101230Z 36007KT 9000 FEW020 28/22 Q1011 NOSIG
TAF:VTBS 101100Z 1012/1118 08005KT 9999 FEW020 SCT100
BECMG 1016/1018 01005KT FEW040
BECMG 1102/1104 07008KT FEW025
BECMG 1116/1118 35005KT FEW040

Related Locations
Nearby:
Farthest:SPPR: 12258 mi / 19727 km
Chilca [Chilca Airport (Canete Airport, Professional Air)], LIM, PE

Find:

   beyond  
but within

Other Information
Maps:
NOTAMs:
Links:
Sources:

  
  • flag of Thailand
  

Sectional Chart

Flight Planning
at skyvector.com

Satellite Image

Google Maps Satellite view

 

Copyright © 2004-2018 Karl L. Swartz. All rights reserved.
The Great Circle Mapper name and logo are trademarks of the Great Circle Mapper.
All other trademarks mentioned herein belong to their respective owners.
Please see credits for attibutions and further copyright information.

  Follow gcmap on Facebook Follow gcmap on Twitter Follow gcmap on Google+ GCmap on LinkedIn

hCard Microformat

Geo Microformat